Regional Weather Roundup
Issued by NWS

Home | Current Version | Previous Version | Text Only | Print | Product List | Glossary On
Versions: 1 2 3 4 5 6 7 8 9 10 11 12 13 14 15 16 17 18 19 20 21 22 23 24 25 26 27 28 29 30 31 32 33 34 35 36 37 38 39 40 41 42 43 44 45 46 47 48 49 50
000
ASHW40 PHFO 020430
RWRHI

WEATHER ROUNDUP FOR HAWAII
NATIONAL WEATHER SERVICE HONOLULU HI
600 PM HST WED APR 01 2015

THIS IS AN AUTOMATED REPORT THAT HAS NOT BEEN QUALITY CONTROLLED.

NOTE..."FAIR" INDICATES FEW OR NO CLOUDS BELOW 12,000 FEET WITH NO
SIGNIFICANT WEATHER AND/OR OBSTRUCTIONS TO VISIBILITY.

* - THESE SITES REPORT LIMITED FIELDS

HIZ001>004-020500-
KAUAI-NIIHAU-

CITY           SKY/WX    TMP DP  RH WIND       PRES   REMARKS
LIHUE APT      CLOUDY    76  68  76 E12       29.99R
PORT ALLEN*      N/A     79 N/A N/A E17G24      N/A
POIPU*           N/A     79 N/A N/A NE8G15      N/A
PRINCEVILLE*     N/A     75 N/A N/A MISG        N/A
KOKOLE POINT*  NOT AVBL
MOLOAA DAIRY*  NOT AVBL
WAIMEA HTS*    NOT AVBL
PUU OPAE*      NOT AVBL
PUU LUA*       NOT AVBL
MAKAHA RIDGE*  NOT AVBL
$$

HIZ005>011-020500-
OAHU-

CITY           SKY/WX    TMP DP  RH WIND       PRES   REMARKS
HONOLULU       PTCLDY    75  65  70 NE18      29.96R
KALAELOA       SUNNY     80  63  55 VRB7      29.97R
KANEOHE MCB    CLOUDY    77  68  73 VRB5      29.96R
WHEELER FIELD  MOSUNNY   75  57  53 E9G15     29.99F
BELLOWS*         N/A    N/A N/A N/A NE13        N/A
KAHUKU*          N/A    N/A N/A N/A E9G16       N/A
WHEELER*       NOT AVBL
WAIANAE HARBOR NOT AVBL
DILLINGHAM*      N/A     81  63  54 MISG        N/A
KAHUKU TRN*      N/A     75  68  78 E12G22      N/A
KAWAILOA*        N/A     73  63  68 E10G20      N/A
KII*             N/A     75  70  83 E16         N/A
MAKUA RANGE*     N/A     81  68  65 W3G13       N/A
OAHU FOREST NW NOT AVBL
SCHOFIELD BRK*   N/A     75  63  64 MISG        N/A
SCHOFIELD S*   NOT AVBL
WAIANAE VLY*   NOT AVBL
KUAOKALA*      NOT AVBL
HONOULIUULI*   NOT AVBL
MOKUOLOE IS*   NOT AVBL
PALEHUA*       NOT AVBL
WAIAWA PHB*    NOT AVBL
$$

HIZ012>013-020500-
MOLOKAI-

CITY           SKY/WX    TMP DP  RH WIND       PRES   REMARKS
MOLOKAI AIRPT  PTCLDY    75  66  73 NE12G21   29.96S
KALAUPAPA      NOT AVBL
MAKAPULAPAI*   NOT AVBL
MOLOKAI 1*     NOT AVBL
PUU ALII*        N/A     62  58  87 E3G12       N/A
$$

HIZ016-020500-
KAHOOLAWE-

CITY           SKY/WX    TMP DP  RH WIND       PRES   REMARKS
KAHOOLAWE*     NOT AVBL
HAKIOAWA*        N/A     72  63  73 MISG      30.38R
HONOKANAIA*      N/A     78  63  60 NE20G33   29.96R
KANELOA*         N/A     79  64  61 MISG      29.17R
KEALIALALO*      N/A     73  63  68 E15G35    29.96R
LUA MAKIKA*    NOT AVBL
$$

HIZ014>015-020500-
LANAI-

CITY           SKY/WX    TMP DP  RH WIND       PRES   REMARKS
LANAI CITY     MOCLDY    72  66  83 NW9       30.01R
LANAI 1*       NOT AVBL
$$

HIZ017>028-020500-
MAUI-

CITY           SKY/WX    TMP DP  RH WIND       PRES   REMARKS
KAHULUI        PTCLDY    79  66  64 E14G23    29.93R
KAPALUA-W MAUI PTCLDY    75  66  73 NE21G26   29.96R
HANA AIRPORT   MOCLDY    75  66  73 E2        30.02S
HANA*            N/A     77 N/A N/A E8          N/A
HALEAKALA SUMM   N/A     48  30  49 E3G24       N/A
MAALAEA BAY*   NOT AVBL
HALEAKALA*     NOT AVBL
KAUPO GAP*     NOT AVBL
KULA 1*          N/A     56  51  85 NW3         N/A
$$

HIZ023>026-020500-
BIG ISLAND OF HAWAII COAST AND LOWER SLOPES-

CITY           SKY/WX    TMP DP  RH WIND       PRES   REMARKS
KAILUA KONA    PTCLDY    80  68  66 W9        29.92R
HILO           MOCLDY    75  66  73 E5        29.99R
HONOKAA*       NOT AVBL
KAWAIHAE MWT*    N/A     81 N/A N/A W5          N/A
KAWAIHAE*        N/A     79 N/A N/A W5          N/A
SOUTH POINT*     N/A     73 N/A N/A NE20G30     N/A
UPOLU AIRPORT*   N/A    N/A N/A N/A NE16G24     N/A
KAMUELA*       CLOUDY    66  63  88 NE17      30.05S
HAKALAU*         N/A     55  50  82 S6G12       N/A
KALOKO-HONOKO*   N/A     79  68  69 W7        29.91
PALI 2*          N/A     68  55  64 NE16G26     N/A
KEALAKOMO*       N/A     79  66  65 E17G26      N/A
KAUPULEHU*     NOT AVBL
KAPAPALA*        N/A     73  64  73 CALM        N/A
LOWER KAHUKU*    N/A     66  61  82 NE3G13      N/A
PUHE CS*         N/A     81  68  65 W3          N/A
PUHO CS*         N/A     81  66  60 NW5G12      N/A
PTA KEAMUKU*     N/A     66  59  77 CALM        N/A
WAIKOLOA*      NOT AVBL
$$

HIZ027>028-020500-
BIG ISLAND OF HAWAII INTERIOR AND SUMMMITS-

CITY           SKY/WX    TMP DP  RH WIND       PRES   REMARKS
BRADSHAW FIELD MOCLDY    61  48  63 S6        30.26S
MK VISITOR CEN NOT AVBL
MAUNA KEA*       N/A     36  21  55 CALM        N/A
MAUNA LOA*       N/A     41  37  87 MISG        N/A
MAUNA LOA 1*   NOT AVBL
PTA KIPUKA*      N/A     64  55  72 NW5G14      N/A
PTA RANGE 17*    N/A     63  52  67 W3G12       N/A
PTA WEST*        N/A     66  59  77 NW3G13      N/A
NENE CABIN*      N/A     54  50  87 E5G12       N/A
AHUMOA*        NOT AVBL
PTA PORTABLE*  NOT AVBL
PUU MALI*        N/A     61  36  39 E3G10       N/A
$$

HIC003-020500-
NORTHWEST ISLANDS-

CITY           SKY/WX    TMP DP  RH WIND       PRES   REMARKS
MIDWAY ISLAND  SUNNY     70  59  68 N13       30.00R
MIDWAY NOS*    NOT AVBL
FRENCH FRIGATE NOT AVBL
$$

PHZ110>124-180-020500-
BUOY REPORTS

STATION/POSITION TIME  TEMP    WIND        PRES    WAVE   SWELL
                       AIR SEA DIR/SP/G            HT/PER HT/DIR
                 (UTC) (F)     (DEG/KT/KT) (MB)    (FT/S) (FT/D)
BUOY 51001       NOT AVBL
BUOY 51101       0400   73 72   90/  8/ 10 1014.6R   6/10   7/340
BUOY 51100       0400   74 75  110/ 16/ 19 1016.6F
BUOY 51002       0400   78 78   70/ 19/ 21 1011.3R   8/ 7   3/ 80
BUOY 51003       0400   77 78   60/ 12/ 14 1013.5R   7/10   7
BUOY 51004       0322   77 77   50/ 17/ 21 1012.4R   9/ 9   5/ 80
BARBERS PT BUOY  NOT AVBL
WAIMEA BAY BUOY  NOT AVBL
KAILUA BAY BUOY  0400      76                N/A     7/11   2/ 10
LANAI BUOY       0400      78                N/A     3/12   2/190
BARBERS PT 2     0400      77                N/A     4/12   2/180
PAUWELA MAUI     0400      76                N/A     7/10   2/ 30
HILO             0400      78                N/A     8/10   3/100
KANEOHE BAY BUOY 0400      76                N/A     6/10   2/ 10
HANALEI KAUAI    0400      75                N/A     7/ 8
KAHULUI HARBOR   0400   77 78   60/ 15/ 22 1013.4S
HONOLULU HARBOR  0400   79 77   60/  4/ 12 1014.5R
KILO NALU        NOT AVBL
HILO HARBOR      0400   83 77  100/  3/  5 1014.9R
MOKUOLOE         0400   77 78   90/  8/ 12 1015.2S
NAWILIWILI       0400   76 78   70/ 12/ 14 1014.9S
WHOTS BUOY       NOT AVBL
BUOY 51028       NOT AVBL
$$

......................KEY........................................
  SKY/WX - SKY CONDITIONS/PRESENT WEATHER
  TMP    - TEMPERATURE IN FAHRENHEIT
  DWPT   - DEWPOINT IN FAHRENHEIT
  RH     - RELATIVE HUMIDITY IN PERCENT
  WIND   - DIRECTION AND SPEED /MPH FOR ISLANDS...KTS FOR BUOYS/
  PRES   - MEAN SEA LEVEL PRESSURE IN INCHES OF HG
  VSB    - VISIBILITY IN MILES
  HX     - HEAT INDEX
  WCI    - WIND CHILL INDEX
  VRB    - VARIABLE WIND DIRECTION
  N/A    - NOT AVAILABLE


USA.gov is the U.S. government's official web portal to all federal, state and local government web resources and services.